| time (UTC) | temp F | wind direction | speed MPH | gust MPH | rain 1hr in | rain 24hr in | rain mn in | humidity % | barometer mb |
| 20260507081553 | 60 | 0 | 0.0 | 2.0 | 0.00 | 0.00 | 0.00 | 86 | 1017.3 |
| 20260507080100 | 60 | 42 | 0.0 | 2.0 | 0.00 | 0.00 | 0.00 | 87 | 1017.3 |
| 20260507074606 | 60 | 0 | 0.0 | 1.0 | 0.00 | 0.00 | 0.00 | 87 | 1017.4 |
| 20260507073052 | 60 | 0 | 0.0 | 1.0 | 0.00 | 0.00 | 0.00 | 87 | 1017.3 |
| 20260507071554 | 60 | 0 | 0.0 | 2.0 | 0.00 | 0.00 | 0.00 | 87 | 1017.3 |
| 20260507070107 | 61 | 0 | 0.0 | 3.0 | 0.00 | 0.00 | 0.00 | 87 | 1017.4 |
| 20260507064604 | 61 | 0 | 1.0 | 3.0 | 0.00 | 0.00 | 0.00 | 87 | 1017.5 |
| 20260507063100 | 61 | 282 | 2.0 | 3.0 | 0.00 | 0.00 | 0.00 | 87 | 1017.6 |
| 20260507061555 | 61 | 279 | 1.0 | 4.0 | 0.00 | 0.00 | 0.00 | 86 | 1017.6 |
| 20260507060054 | 61 | 268 | 2.0 | 4.0 | 0.00 | 0.00 | 0.00 | 85 | 1017.7 |
| 20260507054555 | 61 | 252 | 0.0 | 3.0 | 0.00 | 0.00 | 0.00 | 85 | 1017.5 |
| 20260507053051 | 61 | 298 | 0.0 | 2.0 | 0.00 | 0.00 | 0.00 | 84 | 1017.4 |
| 20260507051555 | 62 | 286 | 1.0 | 2.0 | 0.00 | 0.00 | 0.00 | 83 | 1017.7 |
| 20260507050053 | 62 | 0 | 0.0 | 3.0 | 0.00 | 0.00 | 0.00 | 80 | 1017.6 |
| 20260507044606 | 62 | 0 | 1.0 | 3.0 | 0.00 | 0.00 | 0.00 | 79 | 1017.5 |
| 20260507043109 | 62 | 288 | 1.0 | 4.0 | 0.00 | 0.00 | 0.00 | 79 | 1017.3 |
| 20260507041559 | 62 | 290 | 1.0 | 4.0 | 0.00 | 0.00 | 0.00 | 81 | 1017.6 |
| 20260507040110 | 63 | 310 | 1.0 | 6.0 | 0.00 | 0.00 | 0.00 | 81 | 1017.4 |
| 20260507034618 | 63 | 292 | 3.0 | 8.0 | 0.00 | 0.00 | 0.00 | 81 | 1017.1 |
| 20260507033103 | 63 | 264 | 4.0 | 7.0 | 0.00 | 0.00 | 0.00 | 82 | 1016.9 |
| 20260507031618 | 63 | 273 | 4.0 | 9.0 | 0.00 | 0.00 | 0.00 | 82 | 1016.9 |
| 20260507030057 | 63 | 291 | 4.0 | 9.0 | 0.00 | 0.00 | 0.00 | 81 | 1016.7 |
| 20260507024556 | 63 | 274 | 5.0 | 9.0 | 0.00 | 0.00 | 0.00 | 81 | 1016.5 |
| 20260507023051 | 64 | 317 | 6.0 | 11.0 | 0.00 | 0.00 | 0.00 | 79 | 1016.4 |
| 20260507021556 | 65 | 306 | 8.0 | 13.0 | 0.00 | 0.00 | 0.00 | 76 | 1016.3 |
| 20260507020053 | 66 | 274 | 6.0 | 11.0 | 0.00 | 0.00 | 0.00 | 72 | 1016.3 |
| 20260507014555 | 66 | 295 | 8.0 | 12.0 | 0.00 | 0.00 | 0.00 | 70 | 1016.3 |
| 20260507013108 | 66 | 280 | 7.0 | 14.0 | 0.00 | 0.00 | 0.00 | 69 | 1016.2 |
| 20260507011558 | 67 | 263 | 7.0 | 12.0 | 0.00 | 0.00 | 0.00 | 67 | 1016.3 |
| 20260507010104 | 67 | 271 | 9.0 | 14.0 | 0.00 | 0.00 | 0.00 | 68 | 1016.2 |
| 20260507004552 | 67 | 265 | 9.0 | 15.0 | 0.00 | 0.00 | 0.00 | 68 | 1016.2 |
| 20260507003056 | 68 | 300 | 8.0 | 15.0 | 0.00 | 0.00 | 0.00 | 66 | 1016.1 |
| 20260507001555 | 68 | 268 | 7.0 | 13.0 | 0.00 | 0.00 | 0.00 | 69 | 1015.9 |
| 20260507000051 | 68 | 311 | 7.0 | 16.0 | 0.00 | 0.00 | 0.00 | 67 | 1016.0 |
| 20260506234555 | 68 | 340 | 7.0 | 15.0 | 0.00 | 0.00 | 0.00 | 68 | 1015.9 |
| 20260506233103 | 68 | 273 | 10.0 | 16.0 | 0.00 | 0.00 | 0.00 | 66 | 1016.0 |
| 20260506231551 | 68 | 269 | 9.0 | 16.0 | 0.00 | 0.00 | 0.00 | 66 | 1016.0 |
| 20260506230103 | 67 | 294 | 11.0 | 18.0 | 0.00 | 0.00 | 0.00 | 68 | 1016.1 |
| 20260506224550 | 68 | 281 | 9.0 | 16.0 | 0.00 | 0.00 | 0.00 | 67 | 1016.1 |
| 20260506223053 | 68 | 309 | 9.0 | 17.0 | 0.00 | 0.00 | 0.00 | 68 | 1016.2 |
| 20260506221557 | 68 | 232 | 7.0 | 16.0 | 0.00 | 0.00 | 0.00 | 68 | 1016.3 |
| 20260506220050 | 68 | 258 | 7.0 | 17.0 | 0.00 | 0.00 | 0.00 | 68 | 1016.6 |
| 20260506214600 | 67 | 282 | 9.0 | 18.0 | 0.00 | 0.00 | 0.00 | 68 | 1016.7 |
| 20260506213050 | 68 | 244 | 10.0 | 17.0 | 0.00 | 0.00 | 0.00 | 67 | 1016.8 |
| 20260506211607 | 67 | 269 | 9.0 | 16.0 | 0.00 | 0.00 | 0.00 | 68 | 1016.9 |
| 20260506210055 | 67 | 281 | 10.0 | 19.0 | 0.00 | 0.00 | 0.00 | 68 | 1016.9 |
| 20260506204556 | 67 | 285 | 11.0 | 18.0 | 0.00 | 0.00 | 0.00 | 68 | 1017.0 |
| 20260506203058 | 68 | 250 | 9.0 | 17.0 | 0.00 | 0.00 | 0.00 | 67 | 1017.2 |
| 20260506201551 | 67 | 263 | 9.0 | 17.0 | 0.00 | 0.00 | 0.00 | 66 | 1017.2 |
| 20260506200051 | 68 | 275 | 9.0 | 19.0 | 0.00 | 0.00 | 0.00 | 66 | 1017.2 |
| 20260506194554 | 67 | 254 | 10.0 | 16.0 | 0.00 | 0.00 | 0.00 | 66 | 1017.5 |
| 20260506193049 | 67 | 253 | 9.0 | 16.0 | 0.00 | 0.00 | 0.00 | 66 | 1017.6 |
| 20260506191549 | 67 | 246 | 10.0 | 16.0 | 0.00 | 0.00 | 0.00 | 66 | 1017.5 |
| 20260506190052 | 67 | 196 | 8.0 | 16.0 | 0.00 | 0.00 | 0.00 | 66 | 1017.6 |
| 20260506184551 | 67 | 256 | 8.0 | 14.0 | 0.00 | 0.00 | 0.00 | 66 | 1017.8 |
| 20260506183053 | 67 | 248 | 8.0 | 13.0 | 0.00 | 0.00 | 0.00 | 67 | 1018.0 |
| 20260506181553 | 66 | 253 | 7.0 | 16.0 | 0.00 | 0.00 | 0.00 | 68 | 1018.1 |
| 20260506180055 | 66 | 248 | 7.0 | 14.0 | 0.00 | 0.00 | 0.00 | 66 | 1018.3 |
| 20260506174554 | 66 | 289 | 8.0 | 14.0 | 0.00 | 0.00 | 0.00 | 66 | 1018.3 |
| 20260506173104 | 67 | 290 | 7.0 | 11.0 | 0.00 | 0.00 | 0.00 | 62 | 1018.3 |
| 20260506171557 | 67 | 298 | 5.0 | 11.0 | 0.00 | 0.00 | 0.00 | 62 | 1018.4 |
| 20260506170059 | 67 | 249 | 2.0 | 10.0 | 0.00 | 0.00 | 0.00 | 61 | 1018.3 |
| 20260506164612 | 66 | 13 | 5.0 | 9.0 | 0.00 | 0.00 | 0.00 | 63 | 1018.2 |
| 20260506163059 | 64 | 294 | 3.0 | 9.0 | 0.00 | 0.00 | 0.00 | 66 | 1018.4 |
| 20260506161553 | 65 | 352 | 3.0 | 8.0 | 0.00 | 0.00 | 0.00 | 65 | 1018.5 |
| 20260506160107 | 64 | 5 | 2.0 | 6.0 | 0.00 | 0.00 | 0.00 | 67 | 1018.4 |
| 20260506154554 | 64 | 338 | 2.0 | 6.0 | 0.00 | 0.00 | 0.00 | 68 | 1018.3 |
| 20260506153055 | 63 | 347 | 2.0 | 6.0 | 0.00 | 0.00 | 0.00 | 69 | 1018.4 |
| 20260506151555 | 63 | 15 | 1.0 | 4.0 | 0.00 | 0.00 | 0.00 | 70 | 1018.6 |
| 20260506150052 | 63 | 316 | 1.0 | 4.0 | 0.00 | 0.00 | 0.00 | 70 | 1018.5 |
| 20260506144555 | 61 | 0 | 0.0 | 3.0 | 0.00 | 0.01 | 0.00 | 74 | 1018.5 |
| 20260506143056 | 59 | 82 | 1.0 | 3.0 | 0.00 | 0.01 | 0.00 | 76 | 1018.5 |
| 20260506141611 | 57 | 67 | 2.0 | 4.0 | 0.00 | 0.01 | 0.00 | 79 | 1018.4 |
| 20260506140050 | 56 | 80 | 2.0 | 6.0 | 0.00 | 0.01 | 0.00 | 81 | 1018.4 |
| 20260506134555 | 55 | 62 | 1.0 | 5.0 | 0.00 | 0.09 | 0.00 | 81 | 1018.2 |
| 20260506133104 | 55 | 45 | 0.0 | 4.0 | 0.00 | 0.09 | 0.00 | 82 | 1018.0 |
| 20260506131555 | 55 | 73 | 2.0 | 5.0 | 0.00 | 0.09 | 0.00 | 82 | 1017.9 |
| 20260506130051 | 55 | 66 | 2.0 | 5.0 | 0.00 | 0.09 | 0.00 | 81 | 1017.7 |
| 20260506124553 | 55 | 55 | 2.0 | 4.0 | 0.00 | 0.09 | 0.00 | 81 | 1017.6 |
| 20260506123051 | 56 | 15 | 0.0 | 2.0 | 0.00 | 0.09 | 0.00 | 81 | 1017.6 |
| 20260506121601 | 56 | 0 | 1.0 | 3.0 | 0.00 | 0.09 | 0.00 | 81 | 1017.5 |
| 20260506120118 | 55 | 0 | 0.0 | 1.0 | 0.00 | 0.09 | 0.00 | 82 | 1017.4 |
| 20260506114550 | 56 | 17 | 0.0 | 1.0 | 0.00 | 0.12 | 0.00 | 82 | 1017.5 |
| 20260506113106 | 56 | 0 | 0.0 | 1.0 | 0.00 | 0.12 | 0.00 | 82 | 1017.6 |
| 20260506111601 | 56 | 0 | 0.0 | 1.0 | 0.00 | 0.12 | 0.00 | 82 | 1017.4 |
| 20260506110054 | 56 | 0 | 0.0 | 3.0 | 0.00 | 0.12 | 0.00 | 81 | 1017.5 |
| 20260506104554 | 56 | 117 | 1.0 | 4.0 | 0.00 | 0.12 | 0.00 | 82 | 1017.4 |
| 20260506103053 | 55 | 0 | 0.0 | 1.0 | 0.00 | 0.12 | 0.00 | 83 | 1017.4 |
| 20260506101554 | 55 | 0 | 0.0 | 2.0 | 0.00 | 0.12 | 0.00 | 83 | 1017.4 |
| 20260506100058 | 55 | 87 | 0.0 | 3.0 | 0.00 | 0.12 | 0.00 | 83 | 1017.3 |
| 20260506094553 | 56 | 346 | 0.0 | 4.0 | 0.00 | 0.12 | 0.00 | 82 | 1017.3 |
| 20260506093101 | 56 | 85 | 1.0 | 2.0 | 0.00 | 0.12 | 0.00 | 82 | 1017.1 |
| 20260506091554 | 56 | 0 | 0.0 | 1.0 | 0.00 | 0.12 | 0.00 | 83 | 1017.1 |
| 20260506090057 | 56 | 0 | 0.0 | 3.0 | 0.00 | 0.12 | 0.00 | 82 | 1017.4 |
| 20260506084553 | 57 | 0 | 0.0 | 2.0 | 0.00 | 0.13 | 0.00 | 81 | 1017.6 |
| 20260506083055 | 58 | 0 | 0.0 | 0.0 | 0.00 | 0.13 | 0.00 | 80 | 1017.8 |